Location: San Antonio
(29.4240°N, 98.4930°W)
Time: 08:58:11
(UTC-05:00)

ACS3 Solar Sail - Pass Details

Date: 22 June 2024
Orbit: 992 x 1023 km, 97.4° (Epoch: 11 July)

Event Time Altitude Azimuth Distance (km) Brightness Sun altitude
Exits shadow 23:17:01 70° 168° (SSE) 1,059 4.7 -27.4°
Maximum altitude 23:17:51 90° 287° (WNW) 1,002 4.7 -27.6°
Drops below altitude 10° 23:24:05 10° 349° (N) 2,762 8.0 -28.3°
Sets 23:26:33 0° 349° (N) 3,712 8.8 -28.6°
